FIN1693 EFHK-GCTS

Flight info

Callsign FIN1693
Flight time N/A
Altitude 30000
Route NUNTO Y367 OLPED DCT OBEVI DCT NISIX DCT TOKSI DCT DOSUR/N0450F320 DCT MOXCI DCT BEDUM DCT ANDIK DCT NOGRO M40 SABER L980 MANGO L620 SAM/N0448F330 M195 LORKU DCT EBOMO DCT COQUE DCT KORUL DCT DEMOS DCT ELNUB/N0451F350 DCT IZENI DCT BEXAL UN866 KONBA
Aircraft A321/M-SDE3FGHIRWY/LB1

Departure

Time N/A
Airport Helsinki Vantaa Airport (EFHK)

Arrival

Time 2026-05-06 14:57
Airport Tenerife Sur Airport (GCTS)
Time Latitude Longitude Altitude Speed Heading
2026-05-06 14:25 30.04777 -16.09051 35016 ft 462 kts 212°
2026-05-06 14:26 29.99135 -16.12552 35006 ft 462 kts 212°
2026-05-06 14:26 29.93489 -16.16051 35009 ft 462 kts 212°
2026-05-06 14:27 29.87809 -16.19569 35006 ft 463 kts 212°
2026-05-06 14:27 29.82094 -16.23101 35007 ft 464 kts 212°
2026-05-06 14:28 29.76404 -16.26618 35012 ft 464 kts 211°
2026-05-06 14:28 29.70732 -16.30117 35008 ft 465 kts 212°
2026-05-06 14:29 29.65043 -16.33621 35010 ft 465 kts 212°
2026-05-06 14:29 29.59469 -16.37351 35014 ft 462 kts 217°
2026-05-06 14:30 29.54328 -16.41723 35011 ft 459 kts 223°
2026-05-06 14:30 29.49417 -16.46368 35012 ft 459 kts 224°
2026-05-06 14:31 29.44469 -16.51048 35013 ft 460 kts 223°
2026-05-06 14:31 29.39526 -16.55708 35014 ft 461 kts 223°
2026-05-06 14:32 29.34584 -16.60355 35012 ft 461 kts 223°
2026-05-06 14:32 29.29629 -16.65008 35011 ft 461 kts 223°
2026-05-06 14:33 29.24637 -16.69689 35011 ft 462 kts 223°
2026-05-06 14:33 29.19674 -16.74339 35014 ft 462 kts 223°
2026-05-06 14:34 29.14688 -16.79003 34744 ft 462 kts 223°
2026-05-06 14:34 29.12217 -16.81312 34487 ft 460 kts 223°
2026-05-06 14:34 29.09754 -16.83611 34145 ft 459 kts 223°
2026-05-06 14:35 29.07265 -16.85933 33613 ft 458 kts 223°
2026-05-06 14:35 29.04788 -16.88243 32964 ft 459 kts 223°
2026-05-06 14:35 29.02328 -16.90536 32291 ft 460 kts 223°
2026-05-06 14:35 28.99854 -16.92842 31611 ft 461 kts 223°
2026-05-06 14:36 28.97343 -16.95181 30908 ft 462 kts 223°
2026-05-06 14:36 28.94835 -16.97515 30213 ft 462 kts 223°
2026-05-06 14:36 28.92340 -16.99835 29462 ft 464 kts 223°
2026-05-06 14:36 28.89868 -17.02134 28732 ft 465 kts 223°
2026-05-06 14:37 28.87366 -17.04456 27984 ft 465 kts 223°
2026-05-06 14:37 28.84851 -17.06790 27232 ft 465 kts 223°
2026-05-06 14:37 28.82352 -17.09108 26436 ft 466 kts 222°
2026-05-06 14:37 28.79830 -17.11447 25718 ft 465 kts 222°
2026-05-06 14:38 28.77337 -17.13754 25223 ft 459 kts 222°
2026-05-06 14:38 28.74863 -17.16043 24720 ft 454 kts 222°
2026-05-06 14:38 28.72425 -17.18298 24210 ft 450 kts 222°
2026-05-06 14:38 28.70014 -17.20527 23686 ft 446 kts 222°
2026-05-06 14:39 28.67622 -17.22739 23183 ft 442 kts 222°
2026-05-06 14:39 28.65238 -17.24940 22682 ft 438 kts 222°
2026-05-06 14:39 28.62874 -17.27122 22188 ft 434 kts 222°
2026-05-06 14:39 28.60529 -17.29286 21668 ft 430 kts 222°
2026-05-06 14:40 28.58195 -17.31440 21147 ft 427 kts 222°
2026-05-06 14:40 28.55923 -17.33536 20649 ft 423 kts 222°
2026-05-06 14:40 28.53632 -17.35646 20127 ft 421 kts 222°
2026-05-06 14:40 28.51360 -17.37739 19609 ft 418 kts 222°
2026-05-06 14:41 28.49112 -17.39809 19093 ft 415 kts 222°
2026-05-06 14:41 28.46859 -17.41849 18578 ft 413 kts 219°
2026-05-06 14:41 28.44293 -17.43292 18013 ft 417 kts 198°
2026-05-06 14:41 28.41383 -17.43601 17476 ft 420 kts 178°
2026-05-06 14:42 28.38583 -17.42781 16946 ft 421 kts 158°
2026-05-06 14:42 28.35940 -17.41310 16433 ft 418 kts 154°
2026-05-06 14:42 28.33369 -17.39839 15921 ft 416 kts 155°
2026-05-06 14:42 28.30771 -17.38365 15390 ft 413 kts 155°
2026-05-06 14:43 28.28232 -17.36940 14886 ft 410 kts 155°
2026-05-06 14:43 28.25647 -17.35500 14359 ft 408 kts 155°
2026-05-06 14:43 28.23102 -17.34089 13834 ft 405 kts 155°
2026-05-06 14:43 28.20577 -17.32694 13323 ft 403 kts 155°
2026-05-06 14:44 28.18098 -17.31327 12825 ft 400 kts 155°
2026-05-06 14:44 28.15590 -17.29945 12310 ft 397 kts 155°
2026-05-06 14:44 28.13103 -17.28577 11803 ft 394 kts 155°
2026-05-06 14:45 28.08225 -17.25892 10962 ft 382 kts 155°
2026-05-06 14:45 28.05887 -17.24607 10790 ft 366 kts 155°
2026-05-06 14:45 28.03634 -17.23368 10621 ft 351 kts 155°
2026-05-06 14:45 28.01469 -17.22179 10457 ft 337 kts 155°
2026-05-06 14:46 27.99402 -17.21044 10302 ft 324 kts 155°
2026-05-06 14:46 27.97399 -17.19945 10172 ft 312 kts 155°
2026-05-06 14:46 27.95485 -17.18896 10022 ft 302 kts 155°
2026-05-06 14:46 27.93613 -17.17870 9673 ft 302 kts 155°
2026-05-06 14:47 27.91715 -17.16833 9297 ft 303 kts 155°
2026-05-06 14:47 27.89802 -17.15788 8938 ft 303 kts 155°
2026-05-06 14:47 27.87920 -17.14758 8596 ft 302 kts 154°
2026-05-06 14:47 27.86080 -17.13584 8223 ft 303 kts 139°
2026-05-06 14:48 27.84890 -17.11664 7892 ft 297 kts 106°
2026-05-06 14:48 27.84766 -17.09423 7544 ft 285 kts 74°
2026-05-06 14:48 27.85511 -17.07423 7216 ft 276 kts 61°
2026-05-06 14:48 27.86368 -17.05491 6958 ft 271 kts 62°
2026-05-06 14:49 27.87157 -17.03590 6695 ft 268 kts 64°
2026-05-06 14:49 27.87927 -17.01690 6461 ft 263 kts 58°
2026-05-06 14:49 27.88980 -17.00032 6221 ft 257 kts 51°
2026-05-06 14:49 27.89966 -16.98352 5966 ft 255 kts 59°
2026-05-06 14:50 27.90733 -16.96577 5742 ft 251 kts 64°
2026-05-06 14:50 27.91434 -16.94760 5501 ft 248 kts 65°
2026-05-06 14:50 27.92082 -16.92984 5268 ft 244 kts 66°
2026-05-06 14:50 27.92702 -16.91231 5037 ft 240 kts 66°
2026-05-06 14:51 27.93313 -16.89472 4815 ft 236 kts 67°
2026-05-06 14:51 27.93905 -16.87752 4610 ft 232 kts 67°
2026-05-06 14:51 27.94476 -16.86082 4403 ft 228 kts 66°
2026-05-06 14:51 27.95047 -16.84414 4172 ft 224 kts 66°
2026-05-06 14:52 27.95610 -16.82771 3916 ft 223 kts 67°
2026-05-06 14:52 27.96165 -16.81155 3715 ft 219 kts 67°
2026-05-06 14:52 27.96720 -16.79542 3430 ft 221 kts 67°
2026-05-06 14:52 27.97277 -16.77927 3165 ft 222 kts 67°
2026-05-06 14:53 27.97836 -16.76308 2969 ft 218 kts 67°
2026-05-06 14:53 27.98372 -16.74754 3030 ft 205 kts 67°
2026-05-06 14:53 27.98875 -16.73300 2882 ft 197 kts 67°
2026-05-06 14:53 27.99371 -16.71869 2610 ft 193 kts 68°
2026-05-06 14:54 27.99844 -16.70505 2343 ft 181 kts 68°
2026-05-06 14:54 28.00287 -16.69227 2102 ft 170 kts 68°
2026-05-06 14:54 28.00708 -16.68014 1876 ft 159 kts 68°
2026-05-06 14:54 28.01097 -16.66892 1716 ft 150 kts 68°
2026-05-06 14:55 28.01462 -16.65843 1518 ft 142 kts 69°
2026-05-06 14:55 28.01825 -16.64799 1343 ft 140 kts 69°
2026-05-06 14:55 28.02176 -16.63790 1165 ft 139 kts 69°
2026-05-06 14:55 28.02533 -16.62775 1000 ft 138 kts 69°
2026-05-06 14:56 28.02884 -16.61762 817 ft 137 kts 70°
2026-05-06 14:56 28.03230 -16.60759 630 ft 136 kts 70°
2026-05-06 14:56 28.03577 -16.59764 461 ft 136 kts 70°
2026-05-06 14:56 28.03922 -16.58766 278 ft 134 kts 70°
2026-05-06 14:57 28.04244 -16.57831 225 ft 118 kts 68°
2026-05-06 14:57 28.04500 -16.57096 225 ft 82 kts 69°
2026-05-06 14:57 28.04651 -16.56668 225 ft 31 kts 64°
2026-05-06 14:57 28.04780 -16.56484 226 ft 22 kts 46°
2026-05-06 14:58 28.04874 -16.56375 226 ft 16 kts 39°
2026-05-06 14:58 28.04933 -16.56395 226 ft 9 kts 271°
2026-05-06 14:58 28.04910 -16.56472 226 ft 11 kts 247°
2026-05-06 14:58 28.04879 -16.56558 226 ft 12 kts 248°
2026-05-06 14:59 28.04846 -16.56654 226 ft 13 kts 249°
2026-05-06 14:59 28.04812 -16.56754 226 ft 14 kts 249°
2026-05-06 14:59 28.04775 -16.56862 226 ft 14 kts 248°
2026-05-06 14:59 28.04735 -16.56974 226 ft 15 kts 248°
2026-05-06 15:00 28.04695 -16.57089 225 ft 14 kts 248°
2026-05-06 15:00 28.04693 -16.57136 225 ft 6 kts 304°
2026-05-06 15:00 28.04736 -16.57165 226 ft 7 kts 337°
2026-05-06 15:00 28.04780 -16.57203 226 ft 8 kts 285°
2026-05-06 15:01 28.04765 -16.57274 226 ft 10 kts 247°
2026-05-06 15:01 28.04737 -16.57353 226 ft 11 kts 248°
2026-05-06 15:01 28.04707 -16.57438 225 ft 8 kts 248°
2026-05-06 15:01 28.04684 -16.57500 225 ft 9 kts 243°
2026-05-06 15:02 28.04656 -16.57573 225 ft 10 kts 249°
2026-05-06 15:02 28.04638 -16.57625 225 ft 3 kts 251°
2026-05-06 15:02 28.04646 -16.57655 225 ft 5 kts 328°
2026-05-06 15:02 28.04670 -16.57665 225 ft 3 kts 341°
2026-05-06 15:03 28.04690 -16.57673 225 ft 2 kts 338°
2026-05-06 15:03 28.04704 -16.57679 225 ft 1 kts 339°
2026-05-06 15:03 28.04707 -16.57680 225 ft 0 kts 339°